Regional Weather Roundup
Issued by NWS Little Rock, AR

Home | Current Version | Previous Version | Text Only | Print | Product List | Glossary Off
Versions: 1 2 3 4 5 6 7 8 9 10 11 12 13 14 15 16 17 18 19 20 21 22 23 24 25 26 27 28 29 30 31 32 33 34 35 36 37 38 39 40 41 42 43 44 45 46 47 48 49 50

323
ASUS44 KLZK 250305
RWRLZK

WEATHER ROUNDUP FOR ARKANSAS
NATIONAL WEATHER SERVICE LITTLE ROCK AR
1000 PM CDT FRI MAR 24 2017

NOTE: "FAIR" INDICATES FEW OR NO CLOUDS BELOW 12,000 FEET WITH NO
SIGNIFICANT WEATHER AND/OR OBSTRUCTIONS TO VISIBILITY.

ARZ001-003-010-029-250400-
NORTHWEST ARKANSAS

CITY           SKY/WX    TMP DP  RH WIND       PRES   REMARKS
FAYETTEVILLE   MOCLDY    56  55  97 CALM      29.82F
FORT SMITH     CLOUDY    59  55  87 NE8       29.80F
HARRISON       RAIN      55  53  93 S5        29.94S
BENTONVILLE    MOCLDY    55  52  88 SE7       29.81F
ROGERS         MOCLDY    56  53  90 SE10      29.81F
SILOAM SPGS    CLOUDY    57  52  82 SE7       29.80S
HIGHFILL       MOCLDY    57  54  89 SE6       29.80S
$$

ARZ004-005-016-250400-
NORTH CENTRAL ARKANSAS

CITY           SKY/WX    TMP DP  RH WIND       PRES   REMARKS
BATESVILLE     CLOUDY    70  59  68 W5        29.90F
FLIPPIN        CLOUDY    61  52  72 SW12G26   29.93R
MTN HOME       HVY RAIN  59  57  93 CALM      29.91R FOG
$$

ARZ040-041-250400-
WEST CENTRAL ARKANSAS

CITY           SKY/WX    TMP DP  RH WIND       PRES   REMARKS
MENA           CLOUDY    63  63 100 S6        29.85R
MOUNT IDA      HVY RAIN  63  61  93 VRB5      29.86R FOG
$$

ARZ009-017-025-026-028-250400-
NORTHEAST ARKANSAS

CITY           SKY/WX    TMP DP  RH WIND       PRES   REMARKS
CORNING        CLOUDY    68  61  77 SE18      29.93F
JONESBORO      CLOUDY    70  59  68 SE16      29.93F
NEWPORT        CLOUDY    70  61  73 MISG      29.91
WALNUT RIDGE   CLOUDY    70  57  64 SE21      29.90F
BLYTHEVILLE    MOCLDY    70  59  68 SE16G22   29.98F
$$

ARZ022-023-033-042-044-250400-
CENTRAL ARKANSAS

CITY           SKY/WX    TMP DP  RH WIND       PRES   REMARKS
LITTLE ROCK    CLOUDY    70  60  70 SE14      29.88F
N LITTLE ROCK    N/A     69  60  73 S6        29.87F
JACKSONVILLE   CLOUDY    70  60  70 SE9       29.87S
CONWAY           N/A     64  61  88 S15G24    29.88R FOG
SEARCY         MOCLDY    72  60  66 SE9       29.91F
HOT SPRINGS    HVY RAIN  62  62 100 W13G23    29.88R VSB 1/2
RUSSELLVILLE   RAIN      59  56  89 S7        29.92R FOG
CLINTON        LGT RAIN  64  59  82 VRB6      29.89S
$$

ARZ036-250400-
EAST ARKANSAS

CITY           SKY/WX    TMP DP  RH WIND       PRES   REMARKS
WEST MEMPHIS   CLOUDY    71  60  68 SE18G33   29.97F
$$

ARZ050-053-066-070-073-250400-
SOUTHWEST ARKANSAS

CITY           SKY/WX    TMP DP  RH WIND       PRES   REMARKS
ARKADELPHIA    TSTM      63  62  97 SW5       29.86R
CAMDEN         LGT RAIN  70  59  68 S13G29    29.88R
TEXARKANA      RAIN      61  59  93 W14G20    29.89R
EL DORADO      CLOUDY    74  59  59 S18G32    29.90R
DE QUEEN       CLOUDY    62  60  93 SE5       29.82R
$$

ARZ056-057-069-250400-
SOUTHEAST ARKANSAS

CITY           SKY/WX    TMP DP  RH WIND       PRES   REMARKS
PINE BLUFF     PTCLDY    74  57  55 S20       29.89F
STUTTGART      CLOUDY    73  54  49 S18       29.91S
MONTICELLO     CLOUDY    75  58  55 S13G31    29.93S

$$






USA.gov is the U.S. government's official web portal to all federal, state and local government web resources and services.